Ainsworth, NE

7:50 AM CST on December 16, 2019 (GMT -0600)
Ainsworth Municipal

Weather History for KANW - November, 2019

Change the Weather History Date:

Sunday, November 17, 2019

  Actual Average Record
Temperature  
Mean Temperature 43 °F -  
Max Temperature 55 °F 44 °F 69 °F (1999)
Min Temperature 31 °F 24 °F 0 °F (2000)
Degree Days  
Heating Degree Days 22    
Moisture  
Dew Point 31 °F    
Average Humidity 67    
Maximum Humidity 94    
Minimum Humidity 32    
Precipitation  
Precipitation 0.00 in - - ()
Sea Level Pressure  
Sea Level Pressure 29.98 in    
Wind  
Wind Speed 7 mph ()    
Max Wind Speed 13 mph    
Max Gust Speed 18 mph    
Visibility 10.0 miles    
Events      
Averages and records for this station are not official NWS values.
T = Trace of Precipitation, MM = Missing Value Source: Averaged Metar Reports

Daily Weather History Graph

Daily Weather History Graph

Search for Another Location

Airport or City:

Astronomy

Nov. 17, 2019 Rise Set
Actual Time 7:33 AM CST 5:15 PM CST
Civil Twilight 7:03 AM CST 5:46 PM CST
Nautical Twilight 6:28 AM CST 6:20 PM CST
Astronomical Twilight 5:55 AM CST 6:53 PM CST
Moon 9:52 PM CST (11/17) 12:22 PM CST (11/17)
Length of Visible Light 10h 43m
Length of Day
9h 42m
Waning Gibbous, 73% of the Moon is Illuminated
Nov 17
Waning Gibbous
Nov 19
Last Quarter
Nov 26
New
Dec 4
First Quarter
Dec 11
Full

Hourly Weather History & Observations

Time (CST) Temp. Windchill Dew Point Humidity Pressure Visibility Wind Dir Wind Speed Gust Speed Precip Events Conditions
12:15 AM 38.5 °F 34.1 °F 34.9 °F 87% 30.09 in 10.0 mi WNW 5.8 mph - N/A   Mostly Cloudy
12:35 AM 38.8 °F 33.8 °F 35.2 °F 87% 30.09 in 10.0 mi WNW 6.9 mph - N/A   Mostly Cloudy
12:55 AM 38.1 °F 34.6 °F 35.1 °F 89% 30.09 in 10.0 mi West 4.6 mph - N/A   Clear
1:15 AM 37.9 °F 33.5 °F 35.1 °F 89% 30.09 in 10.0 mi WNW 5.8 mph - N/A   Clear
1:35 AM 37.4 °F 32.1 °F 34.5 °F 89% 30.09 in 10.0 mi WNW 6.9 mph - N/A   Clear
1:55 AM 37.8 °F 31.3 °F 33.6 °F 85% 30.09 in 10.0 mi NW 9.2 mph - N/A   Clear
2:15 AM 38.3 °F 31.4 °F 32.5 °F 80% 30.10 in 10.0 mi NW 10.4 mph - N/A   Clear
2:35 AM 38.3 °F 32.5 °F 32.0 °F 78% 30.10 in 10.0 mi NW 8.1 mph - N/A   Clear
2:55 AM 38.5 °F 32.1 °F 32.0 °F 78% 30.10 in 10.0 mi NW 9.2 mph - N/A   Clear
3:15 AM 37.9 °F 30.9 °F 32.0 °F 79% 30.09 in 10.0 mi WNW 10.4 mph - N/A   Clear
3:35 AM 37.0 °F 29.8 °F 31.6 °F 81% 30.09 in 10.0 mi NW 10.4 mph - N/A   Clear
3:55 AM 36.7 °F 28.9 °F 31.6 °F 82% 30.09 in 10.0 mi WNW 11.5 mph - N/A   Clear
4:15 AM 36.0 °F 29.6 °F 31.5 °F 84% 30.08 in 10.0 mi WNW 8.1 mph - N/A   Clear
4:35 AM 34.7 °F 28.1 °F 31.1 °F 87% 30.08 in 10.0 mi West 8.1 mph - N/A   Clear
4:55 AM 33.3 °F 26.4 °F 30.7 °F 90% 30.07 in 10.0 mi West 8.1 mph - N/A   Clear
5:15 AM 33.8 °F 26.4 °F 31.1 °F 90% 30.07 in 10.0 mi WNW 9.2 mph - N/A   Clear
5:35 AM 32.4 °F 26.0 °F 30.0 °F 91% 30.07 in 10.0 mi WNW 6.9 mph - N/A   Clear
5:55 AM 32.2 °F 27.7 °F 30.2 °F 92% 30.07 in 10.0 mi West 4.6 mph - N/A   Clear
6:15 AM 32.0 °F 26.4 °F 30.4 °F 94% 30.07 in 10.0 mi West 5.8 mph - N/A   Clear
6:35 AM 32.5 °F 25.5 °F 30.2 °F 91% 30.07 in 10.0 mi WNW 8.1 mph - N/A   Clear
6:55 AM 32.5 °F 25.5 °F 30.2 °F 91% 30.07 in 10.0 mi WNW 8.1 mph - N/A   Clear
7:15 AM 32.5 °F 26.2 °F 30.2 °F 91% 30.07 in 10.0 mi WNW 6.9 mph - N/A   Clear
7:35 AM 32.0 °F 24.8 °F 29.8 °F 92% 30.07 in 10.0 mi West 8.1 mph - N/A   Clear
7:55 AM 31.8 °F 27.3 °F 29.7 °F 92% 30.06 in 10.0 mi West 4.6 mph - N/A   Clear
8:15 AM 32.7 °F 25.7 °F 30.7 °F 92% 30.07 in 10.0 mi West 8.1 mph - N/A   Clear
8:35 AM 34.7 °F 28.8 °F 31.1 °F 87% 30.07 in 10.0 mi WNW 6.9 mph - N/A   Clear
8:55 AM 36.5 °F 30.3 °F 31.6 °F 83% 30.07 in 10.0 mi WNW 8.1 mph - N/A   Clear
9:15 AM 38.3 °F 32.5 °F 32.0 °F 78% 30.06 in 10.0 mi WNW 8.1 mph - N/A   Clear
9:35 AM 40.5 °F 36.5 °F 32.2 °F 72% 30.06 in 10.0 mi WNW 5.8 mph - N/A   Clear
9:55 AM 43.0 °F 38.8 °F 32.0 °F 65% 30.05 in 10.0 mi NW 6.9 mph - N/A   Clear
10:15 AM 45.0 °F 40.1 °F 32.0 °F 60% 30.05 in 10.0 mi NW 9.2 mph - N/A   Clear
10:35 AM 46.4 °F 41.5 °F 32.0 °F 57% 30.05 in 10.0 mi NNW 10.4 mph - N/A   Clear
10:55 AM 47.5 °F - 31.5 °F 54% 30.05 in 10.0 mi NW 11.5 mph 17.3 mph N/A   Clear
11:15 AM 48.4 °F - 30.9 °F 51% 30.04 in 10.0 mi NW 9.2 mph 16.1 mph N/A   Clear
11:35 AM 49.5 °F - 30.2 °F 48% 30.03 in 10.0 mi NW 12.7 mph 18.4 mph N/A   Clear
11:55 AM 50.4 °F - 29.7 °F 45% 30.02 in 10.0 mi NW 9.2 mph - N/A   Clear
12:15 PM 51.8 °F - 28.4 °F 41% 30.01 in 10.0 mi NW 11.5 mph - N/A   Clear
12:35 PM 53.1 °F - 27.9 °F 38% 30.00 in 10.0 mi NW 10.4 mph - N/A   Clear
12:55 PM 53.1 °F - 26.4 °F 36% 29.99 in 10.0 mi NW 11.5 mph - N/A   Clear
1:35 PM 55.0 °F - 27.0 °F 34% 29.96 in 10.0 mi NW 5.8 mph - N/A   Clear
1:55 PM 55.6 °F - 26.6 °F 33% 29.96 in 10.0 mi West 11.5 mph 17.3 mph N/A   Clear
2:15 PM 55.8 °F - 26.4 °F 32% 29.94 in 10.0 mi West 10.4 mph - N/A   Clear
2:35 PM 55.6 °F - 26.1 °F 32% 29.94 in 10.0 mi West 9.2 mph 16.1 mph N/A   Clear
2:55 PM 55.8 °F - 26.2 °F 32% 29.92 in 10.0 mi WNW 9.2 mph - N/A   Clear
3:15 PM 55.6 °F - 25.9 °F 32% 29.92 in 10.0 mi WNW 6.9 mph - N/A   Clear
3:35 PM 54.5 °F - 25.9 °F 33% 29.91 in 10.0 mi WNW 5.8 mph - N/A   Clear
3:55 PM 53.6 °F - 27.1 °F 36% 29.91 in 10.0 mi WNW 4.6 mph - N/A   Clear
4:15 PM 52.0 °F - 28.9 °F 41% 29.91 in 10.0 mi West 4.6 mph - N/A   Clear
4:35 PM 51.3 °F - 29.3 °F 43% 29.91 in 10.0 mi WSW 3.5 mph - N/A   Clear
5:35 PM 46.0 °F - 30.9 °F 56% 29.89 in 10.0 mi Calm Calm - N/A   Clear
6:15 PM 41.9 °F 39.0 °F 32.0 °F 68% 29.88 in 10.0 mi SSW 4.6 mph - N/A   Clear
6:35 PM 41.9 °F 37.5 °F 31.1 °F 66% 29.87 in 10.0 mi SSW 6.9 mph - N/A   Clear
6:55 PM 39.7 °F 34.9 °F 31.5 °F 72% 29.87 in 10.0 mi SSW 6.9 mph - N/A   Clear
7:15 PM 40.3 °F 37.1 °F 32.0 °F 72% 29.86 in 10.0 mi SSW 4.6 mph - N/A   Clear
7:35 PM 40.6 °F 36.7 °F 31.8 °F 71% 29.85 in 10.0 mi SW 5.8 mph - N/A   Clear
7:55 PM 43.9 °F 41.3 °F 32.0 °F 63% 29.84 in 10.0 mi SW 4.6 mph - N/A   Clear
8:15 PM 42.1 °F 39.2 °F 32.0 °F 67% 29.83 in 10.0 mi South 4.6 mph - N/A   Clear
8:35 PM 40.1 °F 36.1 °F 32.0 °F 73% 29.82 in 10.0 mi SSW 5.8 mph - N/A   Clear
8:55 PM 40.3 °F 35.5 °F 31.5 °F 71% 29.81 in 10.0 mi SSW 6.9 mph - N/A   Scattered Clouds
9:15 PM 43.3 °F 39.2 °F 32.9 °F 67% 29.80 in 10.0 mi SSW 6.9 mph - N/A   Mostly Cloudy
9:35 PM 45.9 °F 42.3 °F 32.0 °F 58% 29.80 in 10.0 mi SSW 6.9 mph - N/A   Overcast
9:55 PM 46.6 °F - 32.0 °F 57% 29.79 in 10.0 mi SSW 6.9 mph - N/A   Overcast
10:15 PM 47.5 °F - 32.0 °F 55% 29.79 in 10.0 mi SW 8.1 mph - N/A   Overcast
10:35 PM 46.9 °F - 31.8 °F 56% 29.77 in 10.0 mi SW 8.1 mph - N/A   Overcast
10:55 PM 46.8 °F - 32.0 °F 57% 29.77 in 10.0 mi SW 6.9 mph - N/A   Overcast
11:15 PM 46.9 °F - 32.0 °F 56% 29.76 in 10.0 mi WSW 5.8 mph - N/A   Overcast
11:35 PM 47.5 °F - 32.2 °F 55% 29.76 in 10.0 mi WSW 6.9 mph - N/A   Overcast
11:55 PM 48.6 °F - 32.4 °F 54% 29.75 in 10.0 mi West 9.2 mph - N/A   Overcast